Radiation Dose at Monitoring Post of Fukushima Daini Nuclear Power Station
Date,Time,MP-1(microSv/h),MP-2(microSv/h),MP-3(microSv/h),MP-4(microSv/h),MP-5(microSv/h),MP-6(microSv/h),MP-7(microSv/h),Wind Direction,Wind Velocity(m/s),Rain
2021/12/20,00:00,0.157,0.144,0.223,0.220,0.225,0.122,0.079,west-northwest,4.9,No
2021/12/20,00:10,0.157,0.143,0.224,0.219,0.224,0.122,0.077,west,6.0,No
2021/12/20,00:20,0.157,0.142,0.224,0.219,0.224,0.122,0.079,west,6.3,No
2021/12/20,00:30,0.157,0.143,0.224,0.220,0.225,0.123,0.079,west-northwest,7.0,No
2021/12/20,00:40,0.157,0.144,0.225,0.219,0.225,0.122,0.078,west-northwest,6.3,No
2021/12/20,00:50,0.158,0.143,0.225,0.218,0.224,0.124,0.078,west-northwest,5.1,No
2021/12/20,01:00,0.157,0.143,0.223,0.219,0.225,0.122,0.078,west-northwest,6.3,No
2021/12/20,01:10,0.157,0.143,0.224,0.219,0.223,0.123,0.079,west-northwest,6.3,No
2021/12/20,01:20,0.157,0.143,0.223,0.219,0.224,0.122,0.078,west-northwest,6.1,No
2021/12/20,01:30,0.157,0.144,0.224,0.219,0.224,0.123,0.078,west-northwest,6.1,No
2021/12/20,01:40,0.157,0.143,0.223,0.218,0.224,0.123,0.079,west,5.2,No
2021/12/20,01:50,0.157,0.142,0.223,0.219,0.224,0.122,0.079,west-northwest,4.6,No
2021/12/20,02:00,0.156,0.143,0.223,0.219,0.224,0.123,0.078,west,5.8,No
2021/12/20,02:10,0.157,0.143,0.224,0.218,0.225,0.123,0.079,west,5.7,No
2021/12/20,02:20,0.157,0.143,0.223,0.219,0.224,0.122,0.078,west,5.3,No
2021/12/20,02:30,0.158,0.143,0.224,0.218,0.223,0.122,0.079,west-northwest,4.3,No
2021/12/20,02:40,0.157,0.143,0.223,0.219,0.223,0.122,0.078,west-northwest,4.8,No
2021/12/20,02:50,0.157,0.143,0.223,0.219,0.224,0.122,0.078,west-northwest,5.9,No
2021/12/20,03:00,0.157,0.143,0.225,0.219,0.224,0.122,0.079,west-northwest,4.4,No
2021/12/20,03:10,0.157,0.143,0.224,0.219,0.223,0.122,0.078,west-northwest,5.0,No
2021/12/20,03:20,0.157,0.143,0.224,0.220,0.224,0.123,0.078,west-northwest,4.4,No
2021/12/20,03:30,0.157,0.143,0.224,0.220,0.225,0.123,0.077,west-northwest,3.0,No
2021/12/20,03:40,0.157,0.143,0.224,0.219,0.222,0.122,0.079,west-northwest,3.0,No
2021/12/20,03:50,0.157,0.143,0.224,0.219,0.224,0.122,0.078,west-northwest,3.8,No
2021/12/20,04:00,0.156,0.143,0.224,0.218,0.225,0.123,0.078,west-northwest,5.4,No
2021/12/20,04:10,0.157,0.143,0.223,0.218,0.224,0.122,0.079,west-northwest,4.9,No
2021/12/20,04:20,0.158,0.142,0.224,0.219,0.224,0.122,0.079,west-northwest,4.5,No
2021/12/20,04:30,0.157,0.143,0.225,0.219,0.223,0.122,0.078,northwest,5.2,No
2021/12/20,04:40,0.157,0.143,0.224,0.219,0.224,0.122,0.077,northwest,6.4,No
2021/12/20,04:50,0.157,0.143,0.223,0.219,0.224,0.122,0.079,northwest,6.1,No
2021/12/20,05:00,0.157,0.143,0.223,0.219,0.224,0.122,0.078,northwest,3.5,No
2021/12/20,05:10,0.156,0.143,0.225,0.218,0.224,0.122,0.078,west,2.0,No
2021/12/20,05:20,0.157,0.144,0.224,0.219,0.224,0.122,0.078,west,1.4,No
2021/12/20,05:30,0.156,0.143,0.223,0.218,0.225,0.123,0.078,west,1.3,No
2021/12/20,05:40,0.156,0.143,0.224,0.220,0.223,0.123,0.078,west-northwest,1.1,No
2021/12/20,05:50,0.157,0.143,0.223,0.220,0.224,0.123,0.078,northwest,2.1,No
2021/12/20,06:00,0.157,0.144,0.224,0.219,0.224,0.122,0.079,west-northwest,2.0,No
2021/12/20,06:10,0.158,0.143,0.224,0.219,0.224,0.123,0.079,west,2.8,No
2021/12/20,06:20,0.158,0.142,0.224,0.219,0.225,0.123,0.078,west,4.1,No
2021/12/20,06:30,0.157,0.143,0.225,0.220,0.225,0.122,0.079,west,4.8,No
2021/12/20,06:40,0.156,0.142,0.224,0.220,0.225,0.122,0.078,west,3.3,No
2021/12/20,06:50,0.157,0.144,0.223,0.219,0.224,0.122,0.078,west,1.7,No
2021/12/20,07:00,0.157,0.144,0.224,0.220,0.225,0.122,0.078,west,2.8,No
2021/12/20,07:10,0.157,0.143,0.224,0.219,0.224,0.122,0.079,west,4.3,No
2021/12/20,07:20,0.157,0.143,0.224,0.220,0.223,0.123,0.078,west,4.4,No
2021/12/20,07:30,0.157,0.143,0.224,0.219,0.223,0.122,0.078,west-northwest,3.1,No
2021/12/20,07:40,0.157,0.143,0.223,0.220,0.224,0.122,0.078,west-northwest,3.1,No
2021/12/20,07:50,0.157,0.142,0.223,0.219,0.223,0.122,0.079,west-northwest,3.3,No
2021/12/20,08:00,0.157,0.142,0.224,0.218,0.224,0.122,0.078,west-northwest,3.3,No
2021/12/20,08:10,0.157,0.143,0.224,0.219,0.223,0.122,0.079,west-northwest,3.6,No
2021/12/20,08:20,0.158,0.142,0.224,0.219,0.224,0.122,0.079,west-northwest,4.1,No
2021/12/20,08:30,0.157,0.143,0.223,0.218,0.225,0.123,0.078,west,3.9,No
2021/12/20,08:40,0.157,0.143,0.223,0.218,0.224,0.123,0.079,west,5.0,No
2021/12/20,08:50,0.158,0.143,0.225,0.219,0.225,0.123,0.079,west,4.5,No
2021/12/20,09:00,0.158,0.143,0.224,0.219,0.224,0.123,0.078,west,4.4,No
2021/12/20,09:10,0.157,0.143,0.223,0.220,0.224,0.122,0.078,west-northwest,2.5,No
2021/12/20,09:20,0.157,0.142,0.223,0.219,0.225,0.122,0.079,west-northwest,2.6,No
2021/12/20,09:30,0.157,0.143,0.224,0.218,0.224,0.122,0.078,west-northwest,2.1,No
2021/12/20,09:40,0.157,0.143,0.225,0.219,0.224,0.123,0.079,northwest,2.3,No
2021/12/20,09:50,0.157,0.142,0.224,0.218,0.225,0.124,0.078,north-northwest,1.1,No
2021/12/20,10:00,0.158,0.142,0.223,0.216,0.225,0.123,0.078,north-northwest,2.9,No
2021/12/20,10:10,0.157,0.143,0.224,0.220,0.224,0.123,0.078,west,3.6,No
2021/12/20,10:20,0.157,0.142,0.223,0.219,0.225,0.123,0.079,west-northwest,4.6,No
2021/12/20,10:30,0.158,0.143,0.223,0.218,0.225,0.123,0.078,west,6.3,No
2021/12/20,10:40,0.156,0.143,0.222,0.219,0.224,0.123,0.079,west-northwest,7.9,No
2021/12/20,10:50,0.157,0.143,0.223,0.218,0.226,0.123,0.078,west-northwest,8.4,No
2021/12/20,11:00,0.157,0.143,0.222,0.219,0.224,0.123,0.078,west-northwest,8.6,No
2021/12/20,11:10,0.158,0.143,0.223,0.221,0.223,0.123,0.078,west-northwest,9.6,No
2021/12/20,11:20,0.156,0.142,0.224,0.219,0.226,0.123,0.079,west-northwest,7.5,No
2021/12/20,11:30,0.157,0.143,0.223,0.219,0.224,0.123,0.079,west-northwest,6.7,No
2021/12/20,11:40,0.158,0.142,0.223,0.219,0.225,0.123,0.078,west-northwest,4.8,No
2021/12/20,11:50,0.157,0.144,0.224,0.219,0.222,0.123,0.078,west,7.0,No
2021/12/20,12:00,0.157,0.143,0.223,0.220,0.225,0.123,0.079,west-northwest,5.8,No
2021/12/20,12:10,0.157,0.142,0.223,0.219,0.224,0.123,0.078,west-northwest,6.4,No
2021/12/20,12:20,0.157,0.144,0.224,0.218,0.225,0.122,0.079,west,6.4,No
2021/12/20,12:30,0.157,0.142,0.223,0.219,0.223,0.123,0.078,west-northwest,5.9,No
2021/12/20,12:40,0.157,0.143,0.225,0.219,0.225,0.122,0.079,west-northwest,5.2,No
2021/12/20,12:50,0.158,0.143,0.223,0.221,0.224,0.122,0.078,west-northwest,6.4,No
2021/12/20,13:00,0.156,0.143,0.224,0.218,0.225,0.123,0.078,west-northwest,5.1,No
2021/12/20,13:10,0.157,0.143,0.226,0.220,0.226,0.123,0.079,northwest,4.1,No
2021/12/20,13:20,0.157,0.143,0.224,0.219,0.225,0.123,0.078,north-northwest,4.0,No
2021/12/20,13:30,0.157,0.143,0.224,0.220,0.226,0.123,0.078,north,1.6,No
2021/12/20,13:40,0.157,0.143,0.225,0.220,0.225,0.124,0.078,north-northwest,1.9,No
2021/12/20,13:50,0.157,0.143,0.224,0.219,0.225,0.122,0.078,northwest,3.8,No
2021/12/20,14:00,0.158,0.143,0.225,0.221,0.226,0.123,0.077,northwest,5.7,No
2021/12/20,14:10,0.158,0.143,0.226,0.221,0.225,0.123,0.078,northwest,5.8,No
2021/12/20,14:20,0.158,0.144,0.223,0.220,0.225,0.123,0.078,northwest,5.2,No
2021/12/20,14:30,0.158,0.143,0.224,0.219,0.224,0.122,0.078,northwest,7.1,No
2021/12/20,14:40,0.157,0.142,0.225,0.218,0.224,0.123,0.079,northwest,5.8,No
2021/12/20,14:50,0.158,0.144,0.224,0.221,0.226,0.122,0.079,northwest,4.8,No
2021/12/20,15:00,0.158,0.144,0.224,0.219,0.225,0.122,0.078,west-northwest,3.6,No
2021/12/20,15:10,0.157,0.144,0.224,0.219,0.224,0.123,0.078,west-southwest,2.7,No
2021/12/20,15:20,0.158,0.143,0.224,0.220,0.225,0.124,0.078,west,2.4,No
2021/12/20,15:30,0.158,0.144,0.224,0.220,0.223,0.124,0.078,west,3.7,No
2021/12/20,15:40,0.158,0.143,0.224,0.220,0.226,0.123,0.078,west,4.6,No
2021/12/20,15:50,0.158,0.143,0.225,0.220,0.225,0.123,0.078,west-northwest,1.4,No
2021/12/20,16:00,0.157,0.144,0.224,0.219,0.225,0.123,0.078,west,1.6,No
2021/12/20,16:10,0.157,0.143,0.224,0.220,0.225,0.123,0.078,-,CALM,No
2021/12/20,16:20,0.158,0.142,0.225,0.220,0.225,0.123,0.078,west-southwest,0.6,No
2021/12/20,16:30,0.158,0.143,0.224,0.220,0.225,0.123,0.078,-,CALM,No
2021/12/20,16:40,0.157,0.143,0.225,0.219,0.226,0.122,0.078,-,CALM,No
2021/12/20,16:50,0.158,0.144,0.226,0.220,0.226,0.122,0.079,south,1.2,No
2021/12/20,17:00,0.157,0.144,0.224,0.220,0.225,0.123,0.078,south,2.4,No
2021/12/20,17:10,0.158,0.142,0.224,0.220,0.225,0.122,0.078,south-southwest,4.3,No
2021/12/20,17:20,0.158,0.143,0.223,0.220,0.224,0.122,0.079,south-southwest,4.2,No
2021/12/20,17:30,0.157,0.144,0.225,0.221,0.225,0.122,0.078,south,3.4,No
2021/12/20,17:40,0.157,0.144,0.224,0.219,0.224,0.122,0.078,south,3.3,No
2021/12/20,17:50,0.157,0.143,0.223,0.220,0.225,0.122,0.079,south,3.2,No
2021/12/20,18:00,0.158,0.143,0.225,0.220,0.224,0.123,0.079,south,2.5,No
2021/12/20,18:10,0.157,0.143,0.224,0.221,0.225,0.124,0.079,south-southwest,2.4,No
2021/12/20,18:20,0.158,0.143,0.223,0.220,0.226,0.123,0.079,south-southwest,3.1,No
2021/12/20,18:30,0.158,0.144,0.224,0.221,0.223,0.123,0.078,south-southwest,2.9,No
2021/12/20,18:40,0.158,0.144,0.225,0.221,0.226,0.123,0.079,south-southwest,3.4,No
2021/12/20,18:50,0.157,0.143,0.224,0.220,0.224,0.123,0.078,south-southwest,3.1,No
2021/12/20,19:00,0.157,0.144,0.223,0.221,0.224,0.124,0.078,south-southwest,3.6,No
2021/12/20,19:10,0.158,0.143,0.225,0.220,0.226,0.123,0.078,south-southwest,3.8,No
2021/12/20,19:20,0.157,0.143,0.225,0.221,0.224,0.122,0.079,south-southwest,4.9,No
2021/12/20,19:30,0.158,0.143,0.224,0.219,0.224,0.123,0.078,south-southwest,4.7,No
2021/12/20,19:40,0.158,0.144,0.224,0.222,0.226,0.124,0.079,south-southwest,4.8,No
2021/12/20,19:50,0.157,0.144,0.224,0.221,0.226,0.123,0.079,south-southwest,4.3,No
2021/12/20,20:00,0.157,0.142,0.224,0.221,0.224,0.123,0.079,south-southwest,6.2,No
2021/12/20,20:10,0.158,0.143,0.224,0.221,0.226,0.123,0.078,south-southwest,5.8,No
2021/12/20,20:20,0.156,0.143,0.226,0.222,0.225,0.123,0.078,south-southwest,5.0,No
2021/12/20,20:30,0.157,0.144,0.224,0.220,0.225,0.123,0.078,south-southwest,5.2,No
2021/12/20,20:40,0.157,0.144,0.224,0.220,0.224,0.123,0.079,south-southwest,6.3,No
2021/12/20,20:50,0.158,0.144,0.225,0.221,0.225,0.123,0.079,south-southwest,6.4,No
2021/12/20,21:00,0.157,0.143,0.224,0.221,0.225,0.123,0.079,south-southwest,5.9,No
2021/12/20,21:10,0.158,0.143,0.224,0.220,0.225,0.123,0.078,south-southwest,6.4,No
2021/12/20,21:20,0.157,0.144,0.224,0.221,0.225,0.124,0.079,south-southwest,6.8,No
2021/12/20,21:30,0.157,0.144,0.224,0.221,0.225,0.123,0.078,south-southwest,6.6,No
2021/12/20,21:40,0.157,0.143,0.224,0.221,0.225,0.123,0.078,south-southwest,6.1,No
2021/12/20,21:50,0.157,0.143,0.225,0.220,0.226,0.124,0.078,south,5.8,No
2021/12/20,22:00,0.157,0.143,0.225,0.220,0.224,0.124,0.079,south,4.9,No
2021/12/20,22:10,0.157,0.143,0.224,0.221,0.226,0.123,0.078,south,5.3,No
2021/12/20,22:20,0.157,0.143,0.225,0.220,0.226,0.124,0.078,south,4.6,No
2021/12/20,22:30,0.158,0.144,0.225,0.220,0.225,0.123,0.079,south,5.3,No
2021/12/20,22:40,0.157,0.144,0.225,0.221,0.225,0.123,0.078,south,5.6,No
2021/12/20,22:50,0.159,0.143,0.225,0.221,0.225,0.123,0.079,south-southwest,5.7,No
2021/12/20,23:00,0.158,0.144,0.225,0.222,0.225,0.124,0.079,south-southwest,5.5,No
2021/12/20,23:10,0.157,0.144,0.226,0.221,0.224,0.123,0.078,south-southwest,5.7,No
2021/12/20,23:20,0.159,0.144,0.226,0.220,0.226,0.123,0.079,south-southwest,5.9,No
2021/12/20,23:30,0.158,0.144,0.225,0.221,0.225,0.123,0.079,south-southwest,6.5,No
2021/12/20,23:40,0.158,0.144,0.224,0.220,0.226,0.124,0.078,south-southwest,6.1,No
2021/12/20,23:50,0.158,0.144,0.223,0.219,0.224,0.123,0.079,south-southwest,6.2,No
